[[{"header":{"parameterUnit":"m.s-1","parameterCategory":2,"la1":30.2992,"la2":30.254,"lo1":-89.0895,"lo2":-89.0443,"dy":0.0025,"dx":0.0025,"nx":19,"ny":19,"refTime":"2026-03-25T21:00:00:Z","depth":"0","parameterNumber":2,"parameterNumberName":"U-component_of_CURRENTS"},"data":[0,0,0,0.3101,0.3104,0.3215,0.3216,0.342,0.3422,0,0,0,0,0,0,0,0,0,0,0,0.3056,0.3057,0.3101,0.3104,0.3215,0.3216,0.342,0.3422,0,0,0,0,0,0,0,0,0,0,0,0.3056,0.3057,0.3058,0.3104,0.3215,0.3216,0.3419,0.332,0,0,0,0,0,0,0,0,0,0,0.3204,0.3149,0.3057,0.3058,0.3105,0.3215,0.3216,0.3315,0.3326,0.3387,0,0.34,0,0.3422,0.3437,0.3438,0,0,0,0.3105,0.3139,0.3176,0.3058,0.3106,0.3215,0.3165,0.3321,0.3334,0.3403,0.3403,0.3411,0.3425,0.3439,0.344,0.3681,0.3682,0,0,0.3099,0.3076,0.3166,0.3183,0.3133,0.3162,0.3169,0.3328,0.3339,0.3404,0.3416,0.3429,0.344,0.3442,0.368,0.3681,0,0,0,0.308,0.3071,0.3102,0.3175,0.3194,0.3165,0.3173,0.3331,0.3344,0.3418,0.3431,0.3442,0.3444,0.3679,0.3681,0.3772,0,0,0,0.3077,0.3061,0.3099,0.3087,0.319,0.3255,0.3173,0.3332,0.3351,0.343,0.3442,0.3446,0.3678,0.368,0.3767,0.3786,0,0,0,0.3052,0.3058,0.3071,0.3085,0.3134,0.3253,0.3273,0.3336,0.336,0.3438,0.3447,0.3677,0.368,0.3763,0.378,0.3948,0,0,0,0.3025,0.3049,0.307,0.3118,0.3133,0.3251,0.3272,0.3366,0.3435,0.3443,0.3678,0.3681,0.3762,0.3776,0.3942,0.399,0.4021,0,0,0.3042,0.3051,0.3084,0.3106,0.3201,0.3235,0.3382,0.3471,0.3492,0.3628,0.3633,0.3769,0.3779,0.3947,0.4122,0.415,0,0,0,0.3082,0.3099,0.3135,0.3195,0.3281,0.3397,0.3482,0.3547,0.3675,0.3543,0.379,0.3793,0.3897,0.3913,0.3936,0.3664,0.3691,0.3691,0.3691,0.3059,0.3118,0.3184,0.3276,0.3367,0.3526,0.3642,0.3749,0.3759,0.3832,0.3885,0.409,0.4107,0.4125,0.3842,0.3915,0.3915,0.3915,0.3915,0.308,0.3122,0.322,0.3299,0.3444,0.3577,0.3812,0.387,0.4085,0.4003,0.4102,0.4026,0.4155,0.3845,0.3922,0.3921,0.392,0.3919,0.3919,0.3037,0.3075,0.3125,0.3277,0.3442,0.363,0.3884,0.4029,0.4148,0.4257,0.4337,0.4334,0.4053,0.4337,0.4338,0.4339,0.434,0.434,0.4341,0.2981,0.3044,0.314,0.3284,0.341,0.3629,0.3946,0.414,0.4381,0.4441,0.4443,0.4089,0.4219,0.4192,0.4354,0.4351,0.435,0.4349,0.4348,0.3,0.3027,0.3172,0.3288,0.356,0.3724,0.4011,0.4365,0.4589,0.4708,0.4346,0.4577,0.4567,0.4547,0.4529,0.4768,0.4768,0.4769,0.4769,0.3032,0.3048,0.3276,0.3456,0.366,0.3804,0.4035,0.4282,0.442,0.4376,0.4361,0.42,0.4196,0.4151,0.414,0.4108,0.4235,0.4234,0.4232,0.3131,0.3182,0.3354,0.3493,0.3704,0.3844,0.3903,0.3894,0.4056,0.4176,0.3974,0.3997,0.3717,0.3731,0.362,0.3626,0.356,0,0]},{"header":{"parameterUnit":"m.s-1","parameterCategory":2,"la1":30.2992,"la2":30.254,"lo1":-89.0895,"lo2":-89.0443,"dy":0.0025,"dx":0.0025,"nx":19,"ny":19,"refTime":"2026-03-25T21:00:00:Z","depth":"0","parameterNumber":3,"parameterNumberName":"V-component_of_CURRENTS"},"data":[0,0,0,0.0168,0.0168,0.0145,0.0145,0.0122,0.0122,0,0,0,0,0,0,0,0,0,0,0,0.0178,0.0178,0.0168,0.0168,0.0145,0.0145,0.0122,0.0122,0,0,0,0,0,0,0,0,0,0,0,0.0178,0.0178,0.0178,0.0168,0.0145,0.0145,0.0122,0.0136,0,0,0,0,0,0,0,0,0,0,0.0156,0.0165,0.0178,0.0178,0.0168,0.0145,0.0145,0.0136,0.0135,0.0136,0,0.014,0,0.0133,0.0121,0.0121,0,0,0,0.016,0.0166,0.0164,0.0178,0.0168,0.0145,0.0153,0.0135,0.0134,0.0135,0.0139,0.0138,0.0133,0.0121,0.0121,0.0184,0.0185,0,0,0.0161,0.0168,0.0165,0.0163,0.0171,0.0154,0.0152,0.0134,0.0135,0.0139,0.0138,0.0132,0.0121,0.0121,0.0184,0.0185,0,0,0,0.017,0.0169,0.0167,0.0164,0.0161,0.0153,0.0152,0.0135,0.0136,0.0137,0.0132,0.0121,0.0121,0.0183,0.0184,0.0304,0,0,0,0.017,0.0175,0.0167,0.017,0.0162,0.0146,0.0153,0.0137,0.0135,0.0132,0.0121,0.0121,0.0182,0.0183,0.0299,0.037,0,0,0,0.0177,0.0175,0.0176,0.0171,0.0164,0.0147,0.0145,0.0136,0.0132,0.0121,0.0121,0.0181,0.0183,0.0295,0.0361,0.0481,0,0,0,0.0179,0.0209,0.0176,0.0214,0.0165,0.0208,0.0145,0.0162,0.0161,0.0121,0.0182,0.0184,0.0293,0.0356,0.0475,0.0697,0.0743,0,0,0.0224,0.0214,0.024,0.0211,0.0266,0.021,0.0276,0.0236,0.0188,0.0185,0.0186,0.0301,0.036,0.048,0.0802,0.0846,0,0,0,0.0261,0.0281,0.0292,0.0313,0.0322,0.0348,0.0309,0.0299,0.0298,0.0196,0.0304,0.0339,0.041,0.053,0.0565,0.0386,0.0192,0.0192,0.0192,0.0327,0.0338,0.0399,0.042,0.0444,0.0446,0.0472,0.0452,0.0385,0.0406,0.0439,0.0615,0.0744,0.0773,0.0584,0.0431,0.0431,0.0431,0.0432,0.0425,0.0471,0.0489,0.0549,0.0569,0.0617,0.0634,0.0604,0.0664,0.0558,0.0622,0.0653,0.0819,0.0603,0.0439,0.0438,0.0437,0.0436,0.0436,0.0476,0.0506,0.0538,0.0631,0.0706,0.0728,0.0851,0.082,0.0794,0.0851,0.0994,0.0993,0.0805,0.0891,0.0892,0.0893,0.0894,0.0894,0.0895,0.0519,0.0559,0.0636,0.0722,0.0787,0.0889,0.0983,0.1066,0.1178,0.1168,0.117,0.0866,0.0756,0.0739,0.0908,0.0906,0.0904,0.0903,0.0902,0.0598,0.0606,0.0723,0.0792,0.0962,0.1159,0.1233,0.1513,0.1575,0.169,0.1328,0.1344,0.1337,0.1309,0.1306,0.1612,0.1612,0.1612,0.1612,0.0644,0.066,0.0814,0.094,0.1111,0.1282,0.1708,0.1954,0.1857,0.1743,0.1511,0.1408,0.1387,0.137,0.1341,0.1332,0.1637,0.1636,0.1636,0.0711,0.0744,0.0862,0.0983,0.1176,0.1466,0.1951,0.2377,0.208,0.1602,0.1215,0.1215,0.1012,0.0994,0.0919,0.0893,0.086,0,0]}],[{"header":{"parameterUnit":"m.s-1","parameterCategory":2,"la1":30.2992,"la2":30.254,"lo1":-89.0895,"lo2":-89.0443,"dy":0.0025,"dx":0.0025,"nx":19,"ny":19,"refTime":"2026-03-25T21:00:00:Z","depth":"2","parameterNumber":2,"parameterNumberName":"U-component_of_CURRENTS"},"data":[0,0,0,0.2449,0.2451,0.2507,0.2507,0.2612,0.2613,0,0,0,0,0,0,0,0,0,0,0,0.2432,0.2433,0.2449,0.2451,0.2507,0.2507,0.2612,0.2613,0,0,0,0,0,0,0,0,0,0,0,0.2432,0.2433,0.2433,0.2451,0.2507,0.2507,0.2612,0.256,0,0,0,0,0,0,0,0,0,0,0.2501,0.2479,0.2433,0.2433,0.2451,0.2507,0.2507,0.2557,0.2563,0.2597,0,0.2612,0,0.2618,0.2621,0.2622,0,0,0,0.2447,0.2474,0.2493,0.2434,0.2452,0.2507,0.2481,0.256,0.2567,0.2605,0.2613,0.2617,0.2619,0.2622,0.2623,0.2756,0.2756,0,0,0.2444,0.244,0.2488,0.2497,0.2476,0.2479,0.2482,0.2564,0.2575,0.2614,0.2619,0.2621,0.2623,0.2624,0.2755,0.2756,0,0,0,0.2437,0.2438,0.2453,0.2493,0.2503,0.2481,0.2485,0.2571,0.2577,0.262,0.2622,0.2624,0.2625,0.2755,0.2755,0.282,0,0,0,0.2435,0.2434,0.2452,0.245,0.2501,0.2533,0.249,0.2571,0.2581,0.2622,0.2624,0.2626,0.2754,0.2755,0.2817,0.2839,0,0,0,0.2428,0.2433,0.2443,0.2449,0.2476,0.2531,0.2542,0.2573,0.2583,0.2622,0.2627,0.2753,0.2755,0.2815,0.2834,0.2941,0,0,0,0.2416,0.2433,0.2443,0.2467,0.2475,0.2531,0.2541,0.2588,0.2624,0.2624,0.2754,0.2755,0.2814,0.2832,0.2937,0.2832,0.2843,0,0,0.2427,0.2434,0.2448,0.2458,0.2507,0.2523,0.2595,0.2642,0.2655,0.2727,0.273,0.2818,0.2834,0.294,0.2908,0.2916,0,0,0,0.2444,0.2448,0.2467,0.2499,0.2546,0.2595,0.2646,0.2685,0.276,0.2683,0.2827,0.2834,0.29,0.2828,0.2835,0.2761,0.2761,0.2761,0.2761,0.2426,0.2455,0.2482,0.2525,0.2571,0.266,0.2726,0.2789,0.2805,0.2852,0.2894,0.3024,0.2947,0.2951,0.2905,0.2905,0.2905,0.2906,0.2906,0.2422,0.2426,0.2481,0.2518,0.2593,0.2664,0.2803,0.2854,0.3013,0.2963,0.3025,0.2906,0.2962,0.2911,0.291,0.2909,0.2909,0.2908,0.2908,0.2384,0.239,0.2425,0.2493,0.2583,0.269,0.2847,0.2969,0.3056,0.314,0.3101,0.3098,0.3082,0.3194,0.3195,0.3195,0.3196,0.3196,0.3197,0.2328,0.2361,0.2388,0.2479,0.253,0.2675,0.2905,0.3012,0.3124,0.3167,0.3166,0.3123,0.3113,0.3099,0.3206,0.3204,0.3203,0.3202,0.3201,0.2269,0.2293,0.2329,0.2373,0.2502,0.2566,0.2806,0.2983,0.315,0.317,0.3195,0.3192,0.3171,0.3162,0.3149,0.3263,0.3263,0.3263,0.3263,0.2225,0.2239,0.2268,0.2306,0.2383,0.2505,0.2523,0.265,0.2892,0.2963,0.2975,0.2845,0.285,0.2803,0.2803,0.2779,0.2797,0.2796,0.2795,0.2197,0.2211,0.2205,0.2239,0.2304,0.2358,0.2265,0.2212,0.2477,0.2771,0.2838,0.3243,0.308,0.3077,0.3024,0.3016,0.2986,0,0]},{"header":{"parameterUnit":"m.s-1","parameterCategory":2,"la1":30.2992,"la2":30.254,"lo1":-89.0895,"lo2":-89.0443,"dy":0.0025,"dx":0.0025,"nx":19,"ny":19,"refTime":"2026-03-25T21:00:00:Z","depth":"2","parameterNumber":3,"parameterNumberName":"V-component_of_CURRENTS"},"data":[0,0,0,0.0116,0.0115,0.0093,0.0093,0.0054,0.0054,0,0,0,0,0,0,0,0,0,0,0,0.0125,0.0125,0.0116,0.0115,0.0093,0.0093,0.0054,0.0054,0,0,0,0,0,0,0,0,0,0,0,0.0125,0.0125,0.0125,0.0115,0.0093,0.0093,0.0054,0.0072,0,0,0,0,0,0,0,0,0,0,0.0095,0.0106,0.0125,0.0125,0.0115,0.0093,0.0093,0.0073,0.0071,0.0063,0,0.0065,0,0.006,0.0052,0.0051,0,0,0,0.0109,0.0108,0.0103,0.0125,0.0115,0.0093,0.0101,0.0072,0.007,0.0061,0.0064,0.0063,0.006,0.0051,0.0051,0.0081,0.0082,0,0,0.0111,0.0117,0.0105,0.0102,0.0116,0.0102,0.0101,0.0071,0.007,0.0064,0.0062,0.0059,0.0051,0.0051,0.0081,0.0081,0,0,0,0.0118,0.0118,0.0114,0.0104,0.0101,0.0102,0.01,0.0071,0.0071,0.0062,0.0059,0.0051,0.0051,0.008,0.0081,0.017,0,0,0,0.0119,0.0123,0.0115,0.0118,0.0102,0.0087,0.0101,0.0073,0.0069,0.0059,0.0051,0.005,0.0079,0.008,0.0167,0.0244,0,0,0,0.0125,0.0123,0.0123,0.0118,0.0111,0.0088,0.0085,0.0072,0.0067,0.0051,0.005,0.0079,0.008,0.0163,0.0236,0.0318,0,0,0,0.0128,0.0149,0.0123,0.0152,0.0111,0.0144,0.0085,0.0094,0.0088,0.0051,0.0079,0.0081,0.0162,0.0232,0.0313,0.0399,0.0429,0,0,0.0162,0.0153,0.0174,0.0151,0.0196,0.0146,0.0196,0.0152,0.0105,0.0086,0.0086,0.0168,0.0236,0.0317,0.0479,0.0507,0,0,0,0.019,0.0206,0.0214,0.0233,0.024,0.0264,0.022,0.02,0.018,0.0107,0.0171,0.0212,0.026,0.0301,0.0323,0.0087,0.0087,0.0087,0.0087,0.0241,0.0254,0.0304,0.0324,0.0345,0.0343,0.0358,0.0324,0.0251,0.0257,0.0285,0.0414,0.0458,0.0476,0.0265,0.0265,0.0266,0.0266,0.0266,0.0321,0.036,0.0384,0.0434,0.0457,0.0499,0.0497,0.0456,0.0471,0.0378,0.0419,0.0395,0.0506,0.0273,0.0272,0.0271,0.027,0.027,0.0269,0.0363,0.0388,0.0419,0.051,0.0592,0.0614,0.0746,0.0682,0.059,0.062,0.0656,0.0654,0.0492,0.0631,0.0632,0.0632,0.0633,0.0633,0.0634,0.0395,0.0433,0.0515,0.06,0.0689,0.0817,0.0898,0.0943,0.0899,0.0798,0.0798,0.0538,0.0526,0.0514,0.0645,0.0643,0.0641,0.064,0.064,0.0457,0.0473,0.061,0.0701,0.093,0.1156,0.1193,0.1289,0.1264,0.1246,0.0896,0.0886,0.0877,0.0858,0.0854,0.1065,0.1065,0.1065,0.1065,0.0499,0.0515,0.0726,0.0913,0.1151,0.1327,0.1584,0.153,0.134,0.1157,0.1152,0.1066,0.1048,0.104,0.1017,0.1012,0.1266,0.1266,0.1266,0.0561,0.0621,0.0789,0.0978,0.1266,0.1552,0.1761,0.1648,0.1335,0.1267,0.1117,0.1092,0.0948,0.0927,0.0893,0.0865,0.0848,0,0]}],[{"header":{"parameterUnit":"m.s-1","parameterCategory":2,"la1":30.2992,"la2":30.254,"lo1":-89.0895,"lo2":-89.0443,"dy":0.0025,"dx":0.0025,"nx":19,"ny":19,"refTime":"2026-03-25T21:00:00:Z","depth":"4","parameterNumber":2,"parameterNumberName":"U-component_of_CURRENTS"},"data":[0,0,0,0.1595,0.1597,0.1701,0.1701,0.1772,0.1772,0,0,0,0,0,0,0,0,0,0,0,0.1565,0.1566,0.1595,0.1598,0.1701,0.1701,0.1772,0.1772,0,0,0,0,0,0,0,0,0,0,0,0.1564,0.1565,0.1567,0.1598,0.1701,0.1701,0.1772,0.1707,0,0,0,0,0,0,0,0,0,0,0.1613,0.1604,0.1565,0.1567,0.1599,0.1701,0.1701,0.1704,0.1711,0.171,0,0.1742,0,0.176,0.1776,0.1777,0,0,0,0.1589,0.1599,0.1621,0.1567,0.16,0.1701,0.1652,0.1708,0.1716,0.1718,0.1743,0.1746,0.1761,0.1777,0.1777,0.1875,0.1876,0,0,0.1583,0.1584,0.1617,0.1626,0.1647,0.1649,0.1655,0.1713,0.1731,0.1744,0.1748,0.1762,0.1777,0.1778,0.1874,0.1875,0,0,0,0.1573,0.158,0.1602,0.1623,0.1648,0.1652,0.1659,0.1729,0.1736,0.1749,0.1763,0.1778,0.1778,0.1874,0.1875,0.1908,0,0,0,0.1569,0.1575,0.16,0.1601,0.1648,0.17,0.1674,0.1732,0.1739,0.1763,0.1778,0.1779,0.1873,0.1874,0.1906,0.1909,0,0,0,0.1556,0.1573,0.159,0.1601,0.1649,0.17,0.171,0.1734,0.1747,0.1777,0.1779,0.1873,0.1874,0.1903,0.1906,0.1986,0,0,0,0.1544,0.1569,0.1591,0.1622,0.1648,0.17,0.171,0.1764,0.1793,0.1778,0.1873,0.1875,0.1903,0.1904,0.1983,0.1724,0,0,0,0.1558,0.1571,0.1584,0.1605,0.1646,0.1683,0.1742,0.1792,0.1813,0.1846,0.1849,0.1906,0.1905,0.1985,0.1813,0,0,0,0,0.1575,0.1586,0.1603,0.1638,0.168,0.1734,0.1788,0.1823,0.189,0.184,0.1927,0.1925,0.1975,0.1816,0.1882,0.1882,0.1881,0.1881,0.1881,0.157,0.1587,0.1606,0.1641,0.1689,0.1779,0.1831,0.1891,0.1911,0.196,0.1968,0.2069,0.1903,0.1992,0.1992,0.1992,0.1992,0.1993,0.1993,0.1552,0.154,0.1594,0.1623,0.1694,0.1764,0.1878,0.193,0.2038,0.2019,0.2067,0.1879,0.1996,0.1996,0.1995,0.1995,0.1994,0.1994,0.1994,0.151,0.1502,0.1542,0.1584,0.1665,0.177,0.1855,0.1966,0.2068,0.2116,0.2001,0.2111,0.2093,0.2175,0.2175,0.2176,0.2176,0.2176,0.2176,0.1433,0.1466,0.1471,0.1543,0.1578,0.1684,0.186,0.1934,0.2075,0.2013,0.2155,0.2131,0.2125,0.2105,0.2182,0.2181,0.218,0.218,0.218,0.1338,0.1371,0.1361,0.1386,0.1453,0.1518,0.173,0.1847,0.1929,0.1955,0.1967,0.1975,0.1947,0.1947,0.1918,0.1944,0.1941,0.1938,0,0.1254,0.1275,0.1231,0.1221,0.1239,0.1389,0.1449,0.1591,0.1745,0.1682,0.1932,0.1937,0.1944,0.1904,0.1899,0.186,0,0,0,0.1167,0.1174,0.1103,0.1106,0.1108,0.1247,0.1448,0.1446,0.1728,0.1741,0.1862,0.1882,0.2034,0.22,0.218,0.2172,0.2139,0,0]},{"header":{"parameterUnit":"m.s-1","parameterCategory":2,"la1":30.2992,"la2":30.254,"lo1":-89.0895,"lo2":-89.0443,"dy":0.0025,"dx":0.0025,"nx":19,"ny":19,"refTime":"2026-03-25T21:00:00:Z","depth":"4","parameterNumber":3,"parameterNumberName":"V-component_of_CURRENTS"},"data":[0,0,0,0.0109,0.0109,0.0099,0.0099,0.0078,0.0078,0,0,0,0,0,0,0,0,0,0,0,0.0115,0.0115,0.0109,0.0109,0.0099,0.0099,0.0078,0.0078,0,0,0,0,0,0,0,0,0,0,0,0.0115,0.0115,0.0115,0.0109,0.0099,0.0099,0.0078,0.0087,0,0,0,0,0,0,0,0,0,0,0.0097,0.0104,0.0115,0.0115,0.0109,0.0099,0.0099,0.0087,0.0086,0.0081,0,0.0084,0,0.0081,0.0076,0.0076,0,0,0,0.0106,0.0105,0.0103,0.0115,0.0109,0.0099,0.0103,0.0087,0.0086,0.008,0.0083,0.0082,0.008,0.0076,0.0076,0.0099,0.01,0,0,0.0106,0.0111,0.0104,0.0103,0.0112,0.0103,0.0102,0.0086,0.0087,0.0083,0.0082,0.008,0.0076,0.0076,0.0099,0.01,0,0,0,0.011,0.0111,0.0109,0.0103,0.0103,0.0103,0.0102,0.0087,0.0087,0.0082,0.008,0.0076,0.0076,0.0099,0.0099,0.0178,0,0,0,0.011,0.0113,0.011,0.0112,0.0103,0.0096,0.0104,0.0088,0.0086,0.008,0.0076,0.0076,0.0098,0.0099,0.0175,0.0229,0,0,0,0.0114,0.0114,0.0114,0.0112,0.0109,0.0096,0.0095,0.0088,0.0085,0.0076,0.0076,0.0098,0.0099,0.0172,0.0223,0.0258,0,0,0,0.0116,0.0132,0.0115,0.0137,0.0109,0.0138,0.0095,0.0107,0.0106,0.0076,0.0098,0.0099,0.0171,0.022,0.0255,0.0263,0,0,0,0.0139,0.0134,0.015,0.0135,0.0174,0.0138,0.0181,0.0154,0.0116,0.0101,0.0102,0.0176,0.0223,0.0257,0.0318,0,0,0,0,0.0161,0.0174,0.0182,0.0201,0.0209,0.0235,0.0204,0.0188,0.0177,0.0119,0.0173,0.0201,0.022,0.0214,0.0104,0.0104,0.0104,0.0104,0.0103,0.0196,0.021,0.0251,0.0273,0.0294,0.0299,0.031,0.0284,0.0232,0.0237,0.0262,0.0342,0.0338,0.0247,0.0247,0.0248,0.0248,0.0248,0.0248,0.0254,0.0286,0.0315,0.036,0.0388,0.0428,0.0425,0.0394,0.039,0.0332,0.0345,0.0294,0.0256,0.0255,0.0253,0.0253,0.0252,0.0252,0.0251,0.028,0.0302,0.0334,0.042,0.05,0.0528,0.0602,0.0561,0.0484,0.0497,0.0469,0.0399,0.0395,0.0494,0.0495,0.0495,0.0495,0.0496,0.0496,0.0296,0.0333,0.0408,0.0494,0.0578,0.0677,0.071,0.0703,0.0629,0.0577,0.0523,0.0424,0.0416,0.0409,0.0502,0.0501,0.05,0.05,0.0499,0.0334,0.0357,0.0473,0.0559,0.0748,0.0823,0.0851,0.0803,0.0787,0.0732,0.0606,0.0599,0.0573,0.0561,0.0557,0.0699,0.0699,0.07,0,0.0363,0.0379,0.0554,0.0709,0.0861,0.0924,0.0937,0.0906,0.0791,0.0779,0.0776,0.0638,0.063,0.0601,0.0592,0.0589,0,0,0,0.041,0.0459,0.059,0.074,0.0923,0.095,0.0945,0.0911,0.0811,0.078,0.0712,0.0709,0.0615,0.0521,0.0463,0.0453,0.0438,0,0]}]]